FENGYUN 1C DEB

Satellite information

Favourite Embed

Satellite Type and Status

DEBRISIN ORBIT

Key statistics

Satellite FENGYUN 1C DEB at a glance.

Uptime

9612

Days in orbit

Revolutions

≈ 14.2

Per day

Orbit

SSO

Sun Synchronous Orbit

Inclination

98.8

Latest

Satellite identification and parameters

Extended collection of information and parameters for FENGYUN 1C DEB.

Object identification

Identified? True

Debris? True

Object name: FENGYUN 1C DEB

International designator: 1999-025CUW

Object number (NORAD): 32200

Object ID (CCSDS): 32200

Country: PEOPLES REPUBLIC OF CHINA (PRC)

Current information (Y/N): Y

RCS size: SMALL

Orbital parameters

Period: 101.756 minutes

Inclination: 98.8016 deg

SMA: 7219.926 km

Apoapsis: 870.83 km

Periapsis: 812.753 km

RAAN: 293.9667 deg

Eccentricy: 0.00402196

Argument of periapsis: 222.7973 deg

Mean anomaly: 137.0067 deg

Mean motion: 14.15153671 rev/day

Mean motion (dot): 0.00002615 rev/day2

B* drag term: 0.0013589873 1/REarth

Two-line elements (TLE)

Creation date: Aug. 31, 2025, 5:37 p.m.

Reference frame: TEME

Reference center: EARTH

Epoch: Aug. 31, 2025, 2:17 p.m. UTC

TLE line 0: 0 FENGYUN 1C DEB

TLE line 1: 1 32200U 99025CUW 25243.59533585 .00002615 00000-0 13590-2 0 9995

TLE line 2: 2 32200 98.8016 293.9667 0040220 222.7973 137.0067 14.15153671929045

Live tracking on map

Real-time ground track for satellite FENGYUN 1C DEB.

In-orbit conjunctions

A list of the most updated potential collisions computed for object FENGYUN 1C DEB.

Target Orbit TCA Probability of collision Miss distance Type
CZ-6A DEB SSO 2025-05-03 00:18:19 0.0001794491 50.0 (m) DEBRIS
METEOR 2-6 LEO 2025-01-08 14:53:23 0.00117597 153.0 (m) PAYLOAD

Associated space launch

Chinese polar orbiting meteorological satellite

FENGYUN 1C DEB was lifted into orbit during the mission ‘Long March 4B | Feng Yun 1C’, on board a Long March 4B space rocket.

The launch took place on May 10, 1999, 1:33 a.m. from Launch Complex 7.

For more information about the launch, click the button.

Launch to space Long March 4B | Feng Yun 1C
Long March 4B | Feng Yun 1C

Agency: N/A

Status: Launch Successful

Launch date: May 10, 1999, 1:33 a.m. UTC

Rocket: Long March 4B

Launch pad: Launch Complex 7

Location: Taiyuan Satellite Launch Center, People's Republic of China

...

Latest news about this satellite

There are no fresh news available about this satellite. Check back as we update our databases every day.


Newsletter sign-up

Weekly statistics, charts and insights to help you stay on top of the space industry.